Seward, AK

11:12 AM AKDT on September 25, 2017 (GMT -0800)
Seward

Weather History for PAWD - May, 2012

Change the Weather History Date:

Tuesday, May 22, 2012

  Actual Average Record
Temperature  
Mean Temperature 49 °F -  
Max Temperature 55 °F 53 °F 71 °F (2006)
Min Temperature 43 °F 39 °F 33 °F (1972)
Degree Days  
Heating Degree Days 16    
Moisture  
Dew Point 43 °F    
Average Humidity 78    
Maximum Humidity 93    
Minimum Humidity 67    
Precipitation  
Precipitation 0.01 in - - ()
Sea Level Pressure  
Sea Level Pressure 29.76 in    
Wind  
Wind Speed 6 mph (SSE)    
Max Wind Speed 12 mph    
Max Gust Speed 17 mph    
Visibility 10 miles    
Events      
Averages and records for this station are not official NWS values.
T = Trace of Precipitation, MM = Missing Value Source: NWS Daily Summary

Daily Weather History Graph

Daily Weather History Graph

Search for Another Location

Airport or City:

Trip Planner

Search our weather history database for the weather conditions in past years. The results will help you decide how hot, cold, wet, or windy it might be!

Date:

Astronomy

May. 22, 2012 Rise Set
Actual Time 5:02 AM AKDT 10:48 PM AKDT
Civil Twilight 3:49 AM AKDT 12:01 AM AKDT
Nautical Twilight 2:26 AM AKDT Sun does not set
Astronomical Twilight Sun does not set Sun does not set
Moon 6:14 AM AKDT (5/22) No Moon Set
Length of Visible Light 20h 11m
Length of Day
17h 46m
Waxing Crescent, 3% of the Moon is Illuminated
May 22
Waxing Crescent
May 28
First Quarter
Jun 4
Full
Jun 11
Last Quarter
Jun 19
New

Hourly Weather History & Observations

Time (AKDT) Temp. Windchill Dew Point Humidity Pressure Visibility Wind Dir Wind Speed Gust Speed Precip Events Conditions
1:53 AM 43.0 °F 41.3 °F 41.0 °F 93% 29.64 in 10.0 mi North 3.5 mph - N/A   Overcast
2:53 AM 43.0 °F 40.3 °F 39.9 °F 89% 29.64 in 10.0 mi NNE 4.6 mph - N/A   Overcast
3:53 AM 43.0 °F 40.3 °F 39.9 °F 89% 29.64 in 10.0 mi North 4.6 mph - N/A   Overcast
4:53 AM 43.0 °F 38.8 °F 39.9 °F 89% 29.65 in 10.0 mi North 6.9 mph - N/A   Overcast
5:53 AM 43.0 °F 39.5 °F 39.9 °F 89% 29.65 in 10.0 mi North 5.8 mph - N/A   Overcast
6:53 AM 44.1 °F 39.5 °F 39.9 °F 85% 29.66 in 10.0 mi North 8.1 mph - N/A   Overcast
7:53 AM 46.0 °F 41.0 °F 41.0 °F 83% 29.68 in 10.0 mi North 10.4 mph - N/A   Clear
8:53 AM 50.0 °F - 42.1 °F 74% 29.70 in 10.0 mi NNE 5.8 mph - N/A   Partly Cloudy
9:53 AM 50.0 °F - 44.1 °F 80% 29.71 in 10.0 mi SSE 3.5 mph - N/A   Partly Cloudy
10:53 AM 52.0 °F - 44.1 °F 74% 29.73 in 10.0 mi South 4.6 mph - N/A   Partly Cloudy
11:53 AM 52.0 °F - 44.1 °F 74% 29.74 in 10.0 mi South 8.1 mph - 0.01 in   Clear
12:53 PM 53.1 °F - 45.0 °F 74% 29.76 in 10.0 mi South 6.9 mph - N/A   Clear
1:53 PM 55.0 °F - 44.1 °F 67% 29.78 in 10.0 mi South 6.9 mph - N/A   Mostly Cloudy
2:53 PM 54.0 °F - 44.1 °F 69% 29.80 in 10.0 mi SSE 9.2 mph - N/A   Overcast
3:53 PM 55.0 °F - 45.0 °F 69% 29.82 in 10.0 mi SSE 10.4 mph - N/A   Overcast
4:53 PM 54.0 °F - 44.1 °F 69% 29.83 in 10.0 mi SSE 10.4 mph - N/A   Overcast
5:53 PM 54.0 °F - 44.1 °F 69% 29.85 in 10.0 mi SSE 11.5 mph - N/A   Mostly Cloudy
6:53 PM 53.1 °F - 44.1 °F 71% 29.86 in 10.0 mi SSE 10.4 mph 17.3 mph N/A   Scattered Clouds
7:53 PM 53.1 °F - 44.1 °F 71% 29.87 in 10.0 mi South 8.1 mph - N/A   Clear
8:53 PM 51.1 °F - 44.1 °F 77% 29.88 in 10.0 mi SSE 6.9 mph - N/A   Clear
9:53 PM 50.0 °F - 44.1 °F 80% 29.89 in 10.0 mi SSE 3.5 mph - N/A   Mostly Cloudy
10:53 PM 48.9 °F - 44.1 °F 83% 29.90 in 10.0 mi Calm Calm - N/A   Mostly Cloudy
11:53 PM 46.9 °F - 43.0 °F 86% 29.91 in 10.0 mi Calm Calm - N/A   Clear